Regional Weather Roundup
Issued by NWS Charleston, SC

Current Version | Previous Version | Text Only | Print | Product List | Glossary Off
Versions: 1 2 3 4 5 6 7 8 9 10 11 12 13 14 15 16 17 18 19 20 21 22 23 24 25 26 27 28 29 30 31 32 33 34 35 36 37 38 39 40 41 42 43 44 45 46 47 48 49 50

000
ASUS42 KCHS 260413
RWRCHS

REGIONAL WEATHER ROUNDUP
NATIONAL WEATHER SERVICE CHARLESTON SC
1200 AM EDT TUE JUL 26 2016

NOTE: "FAIR" INDICATES FEW OR NO CLOUDS BELOW 12,000 FEET WITH NO
SIGNIFICANT WEATHER AND/OR OBSTRUCTIONS TO VISIBILITY.

NOT ALL STATIONS ARE QUALITY CONTROLLED. USE DATA WITH CAUTION...
ESPECIALLY DEWPOINT OBSERVATIONS.

SCZ027-030-031-034>040-042>050-260500-
...SOUTHEAST SOUTH CAROLINA...

CITY           SKY/WX    TMP DP  RH WIND       PRES   REMARKS
N CHARLESTON   PTCLDY    78  72  81 S8        30.06F
WATERFRONT PRK   N/A     83  76  79 S8        30.04F HX  91
MOUNT PLEASANT FAIR      81  73  78 CALM      30.07S
JOHNS ISLAND   FAIR      82  75  78 SW5       30.07S
PINOPOLIS        N/A     81  73  78 CALM      29.99S
MONCKS CORNER  FAIR      73  70  88 CALM      30.07R
SUMMERVILLE    FAIR      77  77 100 CALM      30.07F
BEAUFORT MCAS  CLEAR     80  73  79 S3        30.07S
BEAUFORT ARPT  FAIR      82  72  69 S6        30.07R
HILTON HEAD IS CLEAR     82  72  69 S8        30.07F
WALTERBORO     PTCLDY    79  79 100 S3        30.08S
ALLENDALE      FAIR      79  72  78 S5        30.06S

...SOUTHERN MIDLANDS AND PEE DEE...

CITY           SKY/WX    TMP DP  RH WIND       PRES   REMARKS
GEORGETOWN     FAIR      75  72  88 CALM      30.08S
KINGSTREE      FAIR      75  70  83 CALM      30.06S
ORANGEBURG     CLEAR     78  71  79 S6        30.07R
BARNWELL       NOT AVBL
AIKEN          FAIR      79  68  69 S7        30.09F
MANNING        FAIR      81  73  78 SW7       30.07S
COLUMBIA       CLEAR     84  70  62 S7        30.04R
SUMTER         CLEAR     81  71  70 S10       30.03S
FLORENCE       CLEAR     80  72  76 S7        30.05S
MYRTLE BEACH   CLEAR     81  68  65 SW6       30.08S
N MYRTLE BEACH PTCLDY    81  75  82 SW14      30.05S

$$

GAZ063-065-086>088-099>101-113>116-118-119-134>141-150-260500-
...SOUTHEAST GEORGIA...

CITY           SKY/WX    TMP DP  RH WIND       PRES   REMARKS
SAVANNAH ARPT  CLEAR     79  72  79 SW5       30.07S
HUNTER AAF     CLEAR     80  75  84 S2        30.05S
FORT STEWART   CLEAR     76  72  86 CALM      30.05S
STATESBORO     CLEAR     79  73  82 S3        30.07R
SYLVANIA       NOT AVBL
CLAXTON        FAIR      78  73  84 CALM      30.07S

...CSRA...CENTRAL AND FAR SOUTHEAST GEORGIA...

CITY           SKY/WX    TMP DP  RH WIND       PRES   REMARKS
THOMSON        NOT AVBL
AUGUSTA-BUSH   CLEAR     81  70  69 S8        30.04R
AUGUSTA-DANIEL CLEAR     84  69  60 S5        30.07R
SWAINSBORO     FAIR      81  70  69 S6        30.07S
VIDALIA        CLEAR     81  70  69 S3        30.07S
EASTMAN        FAIR      80  60  48 SE5       30.09R
HAZLEHURST     FAIR      82  74  76 CALM      30.06R
ALMA           CLEAR     81  73  76 S5        30.06R
WAYCROSS       CLEAR     82  76  81 S5        30.07S HX  90
JESUP          FAIR      79  77  94 CALM      30.08R
BAXLEY         FAIR      81  77  89 CALM      30.07R
BRUNSWICK      CLEAR     82  77  83 SW6       30.08R HX  91
SAINT SIMONS   PTCLDY    83  75  77 SW8       30.07R HX  90

$$

SCZ027-028-034-036>038-045-046-048>050-GAZ119-141-260500-
...LAKE AND SUPPLEMENTAL COASTAL OBSERVATIONS...

STATION/POSITION TIME  TEMP    WIND        PRES    WAVE   SWELL
                       AIR SEA DIR/SP/G            HT/PER HT/PER/DIR
                 (UTC) (F)     (DEG/KT/KT) (MB)    (FT/S) (FT/S/D)
WINYAH BAY       NOT AVBL
LAKE MURRAY      NOT AVBL
ACE BASIN NERRS  NOT AVBL
FORT PULASKI     0300   84 88  170/  5/ 10   N/A
SAPELO ISLAND    0300   84     180/ 10     1018.0S

$$

ANZ835-935-AMZ111-154-330-350-352-354-370-450-454-472-260500-
...C-MAN AND BUOY OBSERVATIONS...

STATION/POSITION TIME  TEMP    WIND        PRES    WAVE   SWELL
                       AIR SEA DIR/SP/G            HT/PER HT/PER/DIR
                 (UTC) (F)     (DEG/KT/KT) (MB)    (FT/S) (FT/S/D)
BUOY 41004       0350   85 86  210/ 12/ 14 1017.7F   2/ 8   2/150/ 8
BUOY 41008       0350   85 86  160/ 14/ 16 1017.8S   3/ 4   2/ 90/ 8
FOLLY BEACH CMAN 0400   84     210/ 14/ 17 1018.4F
CAPERS NEARSHORE 0308   84 84  220/ 14/ 17 1018.0R
FRIPP NEARSHORE  0308   85 87  200/ 14/ 19 1017.6R


STATION/POSITION TIME  TEMP    WIND        PRES    WAVE   SWELL
                       AIR SEA DIR/SP/G            HT/PER HT/PER/DIR
                 (UTC) (F)     (DEG/KT/KT) (MB)    (FT/S) (FT/S/D)
5E ST. MARYS GA  0301      86                N/A     3/ 4
FRYING PAN BUOY  0300   85 85  210/ 14/ 17 1017.5S
BUOY 41025       0350   84 85  220/ 17/ 21 1016.8S   5/ 5   2/120/ 8
CAPE LOOKOUT NC  0400   83     230/ 11/ 15 1017.3R
BUOY 41002       0350   83 84  180/  6/  8 1019.5R   2/ 8   2/120/ 8
BUOY 41010       0320   85 87  180/ 10/ 12 1018.8S
ST AUGUSTINE FL  0400   81 85  250/  5/  6 1019.3R


$$




USA.gov is the U.S. government's official web portal to all federal, state and local government web resources and services.